| time (UTC) | temp C | wind direction | speed KPH | gust KPH | rain 1hr cm | rain 24hr cm | rain mn cm | humidity % | barometer mb |
| 20260905182537 | 18 | 323 | 0.0 | 0.0 | 0.00 | 0.28 | 0.08 | 63 | 1024.6 |
| 20260905182034 | 18 | 323 | 0.0 | 0.0 | 0.00 | 0.28 | 0.08 | 61 | 1024.4 |
| 20260905181533 | 18 | 323 | 0.0 | 1.6 | 0.00 | 0.28 | 0.08 | 60 | 1024.4 |
| 20260905181032 | 18 | 323 | 0.0 | 3.2 | 0.00 | 0.28 | 0.08 | 60 | 1024.4 |
| 20260905180532 | 18 | 323 | 0.0 | 3.2 | 0.00 | 0.28 | 0.08 | 60 | 1024.3 |
| 20260905180032 | 19 | 323 | 0.0 | 3.2 | 0.00 | 0.28 | 0.08 | 60 | 1024.2 |
| 20260905175530 | 19 | 323 | 0.0 | 4.8 | 0.00 | 0.28 | 0.08 | 58 | 1024.2 |
| 20260905175030 | 19 | 323 | 0.0 | 4.8 | 0.00 | 0.28 | 0.08 | 57 | 1024.1 |
| 20260905174530 | 19 | 323 | 0.0 | 3.2 | 0.00 | 0.28 | 0.08 | 57 | 1024.0 |
| 20260905174029 | 20 | 323 | 0.0 | 3.2 | 0.00 | 0.28 | 0.08 | 56 | 1024.0 |
| 20260905173529 | 20 | 323 | 0.0 | 3.2 | 0.00 | 0.28 | 0.08 | 56 | 1024.0 |
| 20260905173029 | 20 | 323 | 0.0 | 4.8 | 0.00 | 0.28 | 0.08 | 55 | 1024.0 |
| 20260905172528 | 20 | 323 | 1.6 | 4.8 | 0.00 | 0.28 | 0.08 | 54 | 1023.9 |
| 20260905172028 | 20 | 323 | 0.0 | 4.8 | 0.00 | 0.28 | 0.08 | 54 | 1024.0 |
| 20260905171534 | 20 | 323 | 1.6 | 6.4 | 0.00 | 0.28 | 0.08 | 53 | 1023.9 |
| 20260905171027 | 21 | 322 | 1.6 | 6.4 | 0.00 | 0.28 | 0.08 | 52 | 1023.9 |
| 20260905170527 | 21 | 333 | 1.6 | 9.7 | 0.00 | 0.28 | 0.08 | 52 | 1023.8 |
| 20260905170027 | 21 | 313 | 3.2 | 12.9 | 0.00 | 0.28 | 0.08 | 51 | 1023.9 |
| 20260905165527 | 21 | 271 | 3.2 | 11.3 | 0.00 | 0.28 | 0.08 | 51 | 1023.8 |
| 20260905165028 | 21 | 300 | 3.2 | 14.5 | 0.00 | 0.28 | 0.08 | 51 | 1023.9 |
| 20260905164527 | 21 | 275 | 3.2 | 19.3 | 0.00 | 0.28 | 0.08 | 50 | 1023.9 |
| 20260905164026 | 21 | 275 | 3.2 | 19.3 | 0.00 | 0.28 | 0.08 | 50 | 1023.8 |
| 20260905163530 | 21 | 270 | 3.2 | 6.4 | 0.00 | 0.28 | 0.08 | 49 | 1023.6 |
| 20260905163025 | 22 | 284 | 3.2 | 12.9 | 0.00 | 0.28 | 0.08 | 49 | 1023.5 |
| 20260905162525 | 22 | 284 | 1.6 | 12.9 | 0.00 | 0.28 | 0.08 | 50 | 1023.5 |
| 20260905162024 | 22 | 333 | 1.6 | 12.9 | 0.00 | 0.28 | 0.08 | 48 | 1023.5 |
| 20260905161524 | 22 | 311 | 3.2 | 14.5 | 0.00 | 0.28 | 0.08 | 48 | 1023.5 |
| 20260905161024 | 22 | 311 | 4.8 | 17.7 | 0.00 | 0.28 | 0.08 | 47 | 1023.5 |
| 20260905160523 | 22 | 340 | 4.8 | 17.7 | 0.00 | 0.28 | 0.08 | 48 | 1023.3 |
| 20260905160028 | 22 | 303 | 3.2 | 11.3 | 0.00 | 0.28 | 0.08 | 46 | 1023.3 |
| 20260905155525 | 22 | 263 | 3.2 | 11.3 | 0.00 | 0.28 | 0.08 | 46 | 1023.2 |
| 20260905155026 | 22 | 325 | 1.6 | 8.0 | 0.00 | 0.28 | 0.08 | 48 | 1023.3 |
| 20260905154623 | 22 | 326 | 3.2 | 8.0 | 0.00 | 0.28 | 0.08 | 47 | 1023.4 |
| 20260905154022 | 22 | 319 | 1.6 | 16.1 | 0.00 | 0.28 | 0.08 | 48 | 1023.3 |
| 20260905153522 | 22 | 342 | 4.8 | 20.9 | 0.00 | 0.28 | 0.08 | 49 | 1023.3 |
| 20260905153024 | 22 | 338 | 8.0 | 20.9 | 0.00 | 0.28 | 0.08 | 48 | 1023.2 |
| 20260905152522 | 23 | 341 | 3.2 | 17.7 | 0.00 | 0.28 | 0.08 | 46 | 1023.2 |
| 20260905152024 | 23 | 339 | 3.2 | 12.9 | 0.00 | 0.28 | 0.08 | 46 | 1023.2 |
| 20260905151522 | 23 | 256 | 1.6 | 14.5 | 0.00 | 0.28 | 0.08 | 46 | 1023.2 |
| 20260905151020 | 23 | 259 | 3.2 | 11.3 | 0.00 | 0.28 | 0.08 | 45 | 1023.2 |
| 20260905150521 | 23 | 267 | 3.2 | 14.5 | 0.00 | 0.28 | 0.08 | 46 | 1023.1 |
| 20260905150021 | 23 | 259 | 3.2 | 14.5 | 0.00 | 0.28 | 0.08 | 45 | 1023.1 |
| 20260905145523 | 23 | 313 | 4.8 | 16.1 | 0.00 | 0.28 | 0.08 | 44 | 1023.1 |
| 20260905145020 | 23 | 306 | 4.8 | 16.1 | 0.00 | 0.28 | 0.08 | 44 | 1023.1 |
| 20260905144520 | 23 | 309 | 3.2 | 17.7 | 0.00 | 0.28 | 0.08 | 46 | 1023.0 |
| 20260905144019 | 23 | 258 | 3.2 | 19.3 | 0.00 | 0.28 | 0.08 | 46 | 1023.1 |
| 20260905143519 | 23 | 286 | 6.4 | 19.3 | 0.00 | 0.28 | 0.08 | 46 | 1023.0 |
| 20260905143021 | 23 | 263 | 3.2 | 14.5 | 0.00 | 0.28 | 0.08 | 48 | 1023.0 |
| 20260905142519 | 22 | 272 | 6.4 | 14.5 | 0.00 | 0.28 | 0.08 | 47 | 1023.0 |
| 20260905142020 | 22 | 309 | 3.2 | 19.3 | 0.00 | 0.28 | 0.08 | 48 | 1023.0 |
| 20260905141519 | 21 | 318 | 4.8 | 19.3 | 0.00 | 0.28 | 0.08 | 51 | 1023.1 |
| 20260905141023 | 21 | 351 | 1.6 | 12.9 | 0.00 | 0.28 | 0.08 | 51 | 1023.0 |
| 20260905140522 | 21 | 287 | 3.2 | 16.1 | 0.00 | 0.28 | 0.08 | 50 | 1023.0 |
| 20260905140018 | 22 | 306 | 3.2 | 12.9 | 0.00 | 0.28 | 0.08 | 49 | 1023.0 |
| 20260905135519 | 22 | 291 | 3.2 | 29.0 | 0.00 | 0.28 | 0.08 | 47 | 1023.0 |
| 20260905135018 | 23 | 240 | 4.8 | 29.0 | 0.00 | 0.28 | 0.08 | 47 | 1022.9 |
| 20260905134516 | 23 | 281 | 8.0 | 14.5 | 0.00 | 0.28 | 0.08 | 45 | 1022.9 |
| 20260905134016 | 22 | 265 | 8.0 | 24.1 | 0.00 | 0.28 | 0.08 | 47 | 1022.8 |
| 20260905133521 | 22 | 265 | 4.8 | 24.1 | 0.00 | 0.28 | 0.08 | 48 | 1022.9 |
| 20260905133016 | 22 | 329 | 3.2 | 12.9 | 0.00 | 0.28 | 0.08 | 46 | 1022.9 |
| 20260905132516 | 22 | 302 | 4.8 | 19.3 | 0.00 | 0.28 | 0.08 | 46 | 1022.9 |
| 20260905132016 | 22 | 330 | 3.2 | 19.3 | 0.00 | 0.28 | 0.08 | 47 | 1022.9 |
| 20260905131516 | 23 | 272 | 4.8 | 20.9 | 0.00 | 0.28 | 0.08 | 46 | 1022.8 |
| 20260905131015 | 23 | 336 | 4.8 | 20.9 | 0.00 | 0.28 | 0.08 | 46 | 1022.8 |
| 20260905130517 | 22 | 267 | 8.0 | 24.1 | 0.00 | 0.28 | 0.08 | 46 | 1022.7 |
| 20260905130014 | 23 | 261 | 9.7 | 24.1 | 0.00 | 0.28 | 0.08 | 47 | 1022.7 |
| 20260905125514 | 23 | 325 | 3.2 | 12.9 | 0.00 | 0.28 | 0.08 | 47 | 1022.7 |
| 20260905125017 | 22 | 317 | 4.8 | 14.5 | 0.00 | 0.28 | 0.08 | 47 | 1022.7 |
| 20260905124519 | 23 | 338 | 6.4 | 25.7 | 0.00 | 0.28 | 0.08 | 45 | 1022.7 |
| 20260905124013 | 22 | 344 | 8.0 | 25.7 | 0.00 | 0.28 | 0.08 | 49 | 1022.6 |
| 20260905123513 | 23 | 281 | 4.8 | 19.3 | 0.00 | 0.28 | 0.08 | 49 | 1022.5 |
| 20260905123013 | 23 | 263 | 3.2 | 16.1 | 0.00 | 0.28 | 0.08 | 46 | 1022.5 |
| 20260905122515 | 23 | 321 | 3.2 | 22.5 | 0.00 | 0.28 | 0.08 | 48 | 1022.5 |
| 20260905122014 | 23 | 302 | 4.8 | 24.1 | 0.00 | 0.28 | 0.08 | 50 | 1022.5 |
| 20260905121512 | 23 | 276 | 9.7 | 32.2 | 0.00 | 0.28 | 0.08 | 48 | 1022.4 |
| 20260905121013 | 23 | 306 | 3.2 | 20.9 | 0.00 | 0.28 | 0.08 | 49 | 1022.6 |
| 20260905120512 | 22 | 265 | 6.4 | 20.9 | 0.00 | 0.28 | 0.08 | 48 | 1022.5 |
| 20260905120018 | 23 | 286 | 3.2 | 22.5 | 0.00 | 0.28 | 0.08 | 48 | 1022.5 |
| 20260905115511 | 22 | 260 | 4.8 | 22.5 | 0.00 | 0.28 | 0.08 | 48 | 1022.4 |
| 20260905115011 | 22 | 287 | 3.2 | 22.5 | 0.00 | 0.28 | 0.08 | 49 | 1022.5 |
| 20260905114510 | 23 | 278 | 3.2 | 22.5 | 0.00 | 0.28 | 0.08 | 50 | 1022.6 |
| 20260905114009 | 23 | 259 | 4.8 | 22.5 | 0.00 | 0.28 | 0.08 | 50 | 1022.6 |
| 20260905113508 | 22 | 258 | 4.8 | 24.1 | 0.00 | 0.28 | 0.08 | 50 | 1022.5 |
| 20260905113011 | 23 | 328 | 4.8 | 12.9 | 0.00 | 0.28 | 0.08 | 51 | 1022.5 |
| 20260905112509 | 22 | 262 | 3.2 | 17.7 | 0.00 | 0.28 | 0.08 | 54 | 1022.4 |
| 20260905112007 | 22 | 271 | 3.2 | 19.3 | 0.00 | 0.28 | 0.08 | 54 | 1022.5 |
| 20260905111505 | 22 | 253 | 6.4 | 25.7 | 0.00 | 0.28 | 0.08 | 56 | 1022.6 |
| 20260905111010 | 21 | 248 | 6.4 | 25.7 | 0.00 | 0.28 | 0.08 | 59 | 1022.5 |
| 20260905110504 | 22 | 253 | 8.0 | 19.3 | 0.00 | 0.28 | 0.08 | 55 | 1022.7 |
| 20260905110005 | 22 | 261 | 3.2 | 17.7 | 0.00 | 0.28 | 0.08 | 56 | 1022.5 |
| 20260905105505 | 21 | 262 | 6.4 | 27.4 | 0.00 | 0.28 | 0.08 | 58 | 1022.6 |
| 20260905105004 | 21 | 261 | 4.8 | 27.4 | 0.00 | 0.28 | 0.08 | 57 | 1022.6 |
| 20260905104502 | 21 | 271 | 11.3 | 20.9 | 0.00 | 0.28 | 0.08 | 57 | 1022.4 |
| 20260905104002 | 20 | 246 | 4.8 | 14.5 | 0.00 | 0.28 | 0.08 | 60 | 1022.5 |
| 20260905103503 | 20 | 280 | 3.2 | 11.3 | 0.00 | 0.28 | 0.08 | 58 | 1022.5 |
| 20260905103005 | 21 | 271 | 4.8 | 12.9 | 0.00 | 0.28 | 0.08 | 58 | 1022.6 |
| 20260905102501 | 21 | 328 | 3.2 | 12.9 | 0.00 | 0.28 | 0.08 | 57 | 1022.6 |
| 20260905102100 | 21 | 342 | 1.6 | 17.7 | 0.00 | 0.28 | 0.08 | 63 | 1022.6 |
| 20260905101559 | 20 | 253 | 6.4 | 17.7 | 0.00 | 0.28 | 0.08 | 65 | 1022.6 |
| 20260905101058 | 20 | 267 | 4.8 | 19.3 | 0.00 | 0.28 | 0.08 | 63 | 1022.7 |
| 20260905100559 | 20 | 261 | 4.8 | 19.3 | 0.00 | 0.28 | 0.08 | 65 | 1022.7 |
| 20260905100104 | 20 | 263 | 6.4 | 16.1 | 0.00 | 0.28 | 0.08 | 62 | 1022.7 |
| 20260905095557 | 20 | 265 | 8.0 | 17.7 | 0.00 | 0.28 | 0.08 | 61 | 1022.6 |
| 20260905095056 | 20 | 251 | 4.8 | 17.7 | 0.00 | 0.28 | 0.08 | 65 | 1022.6 |
| 20260905094555 | 20 | 260 | 4.8 | 16.1 | 0.00 | 0.28 | 0.08 | 64 | 1022.6 |
| 20260905094053 | 20 | 262 | 3.2 | 17.7 | 0.00 | 0.28 | 0.08 | 65 | 1022.6 |
| 20260905093553 | 20 | 254 | 6.4 | 17.7 | 0.00 | 0.28 | 0.08 | 66 | 1022.6 |
| 20260905093055 | 20 | 234 | 4.8 | 16.1 | 0.00 | 0.28 | 0.08 | 70 | 1022.5 |
| 20260905092551 | 19 | 248 | 3.2 | 12.9 | 0.00 | 0.28 | 0.08 | 70 | 1022.5 |
| 20260905092051 | 19 | 267 | 4.8 | 19.3 | 0.00 | 0.28 | 0.08 | 69 | 1022.4 |
| 20260905091556 | 18 | 254 | 3.2 | 19.3 | 0.00 | 0.28 | 0.08 | 70 | 1022.5 |
| 20260905091051 | 18 | 267 | 3.2 | 14.5 | 0.00 | 0.28 | 0.08 | 71 | 1022.3 |
| 20260905090550 | 19 | 265 | 4.8 | 17.7 | 0.00 | 0.28 | 0.08 | 69 | 1022.3 |
| 20260905090050 | 19 | 255 | 6.4 | 17.7 | 0.00 | 0.28 | 0.08 | 69 | 1022.3 |
| 20260905085549 | 19 | 256 | 3.2 | 22.5 | 0.00 | 0.28 | 0.08 | 68 | 1022.3 |
| 20260905085047 | 18 | 266 | 6.4 | 22.5 | 0.00 | 0.28 | 0.08 | 69 | 1022.2 |
| 20260905084545 | 18 | 265 | 4.8 | 22.5 | 0.00 | 0.28 | 0.08 | 75 | 1022.2 |
| 20260905084049 | 18 | 250 | 6.4 | 19.3 | 0.00 | 0.28 | 0.08 | 74 | 1022.0 |
| 20260905083546 | 18 | 244 | 8.0 | 17.7 | 0.00 | 0.28 | 0.08 | 74 | 1022.0 |
| 20260905083044 | 19 | 259 | 3.2 | 20.9 | 0.00 | 0.28 | 0.08 | 75 | 1022.0 |
| 20260905082543 | 18 | 265 | 8.0 | 20.9 | 0.00 | 0.28 | 0.08 | 76 | 1022.0 |
| 20260905082042 | 18 | 257 | 4.8 | 19.3 | 0.00 | 0.28 | 0.08 | 78 | 1021.8 |
| 20260905081544 | 18 | 247 | 9.7 | 20.9 | 0.00 | 0.28 | 0.08 | 78 | 1021.7 |
| 20260905081040 | 18 | 258 | 9.7 | 20.9 | 0.00 | 0.28 | 0.08 | 80 | 1021.9 |
| 20260905080541 | 18 | 251 | 4.8 | 19.3 | 0.00 | 0.28 | 0.08 | 80 | 1021.7 |
| 20260905080043 | 18 | 254 | 8.0 | 19.3 | 0.00 | 0.28 | 0.08 | 82 | 1021.6 |
| 20260905075539 | 18 | 246 | 8.0 | 14.5 | 0.00 | 0.28 | 0.08 | 83 | 1021.5 |
| 20260905075040 | 17 | 238 | 9.7 | 17.7 | 0.00 | 0.28 | 0.08 | 83 | 1021.5 |
| 20260905074536 | 17 | 236 | 11.3 | 17.7 | 0.00 | 0.28 | 0.08 | 84 | 1021.4 |
| 20260905074035 | 17 | 240 | 6.4 | 17.7 | 0.00 | 0.28 | 0.08 | 83 | 1021.4 |
| 20260905073535 | 17 | 250 | 4.8 | 17.7 | 0.00 | 0.28 | 0.08 | 84 | 1021.4 |
| 20260905073035 | 17 | 241 | 9.7 | 17.7 | 0.00 | 0.28 | 0.08 | 84 | 1021.5 |
| 20260905072533 | 17 | 250 | 8.0 | 17.7 | 0.00 | 0.28 | 0.08 | 85 | 1021.2 |
| 20260905072035 | 17 | 237 | 6.4 | 14.5 | 0.00 | 0.28 | 0.08 | 86 | 1021.2 |
| 20260905071531 | 17 | 236 | 1.6 | 8.0 | 0.00 | 0.28 | 0.08 | 88 | 1021.3 |
| 20260905071033 | 17 | 236 | 3.2 | 14.5 | 0.00 | 0.28 | 0.08 | 89 | 1021.2 |
| 20260905070529 | 17 | 236 | 8.0 | 14.5 | 0.00 | 0.28 | 0.08 | 91 | 1021.2 |
| 20260905070034 | 17 | 231 | 6.4 | 16.1 | 0.00 | 0.28 | 0.08 | 92 | 1021.1 |
| 20260905065529 | 17 | 248 | 8.0 | 16.1 | 0.00 | 0.28 | 0.08 | 93 | 1021.1 |
| 20260905065028 | 16 | 213 | 4.8 | 9.7 | 0.00 | 0.28 | 0.08 | 93 | 1021.1 |
| 20260905064528 | 16 | 325 | 1.6 | 6.4 | 0.00 | 0.28 | 0.08 | 94 | 1021.0 |
| 20260905064026 | 16 | 329 | 1.6 | 4.8 | 0.00 | 0.28 | 0.08 | 94 | 1021.1 |
| 20260905063524 | 16 | 340 | 0.0 | 0.0 | 0.00 | 0.28 | 0.08 | 94 | 1021.1 |
| 20260905063024 | 15 | 340 | 0.0 | 0.0 | 0.00 | 0.28 | 0.08 | 94 | 1021.0 |
| 20260905062522 | 15 | 340 | 0.0 | 0.0 | 0.00 | 0.28 | 0.08 | 94 | 1020.9 |
| 20260905062022 | 15 | 340 | 0.0 | 0.0 | 0.00 | 0.28 | 0.08 | 94 | 1020.9 |
| 20260905061522 | 15 | 340 | 0.0 | 0.0 | 0.00 | 0.28 | 0.08 | 94 | 1020.8 |
| 20260905061021 | 15 | 340 | 0.0 | 0.0 | 0.00 | 0.28 | 0.08 | 94 | 1020.7 |
| 20260905060520 | 15 | 340 | 0.0 | 0.0 | 0.00 | 0.28 | 0.08 | 94 | 1020.5 |
| 20260905060021 | 14 | 340 | 0.0 | 1.6 | 0.00 | 0.28 | 0.08 | 94 | 1020.4 |
| 20260905055519 | 14 | 340 | 0.0 | 1.6 | 0.00 | 0.28 | 0.08 | 94 | 1020.5 |
| 20260905055022 | 14 | 340 | 0.0 | 0.0 | 0.00 | 0.28 | 0.08 | 94 | 1020.5 |
| 20260905054519 | 14 | 340 | 0.0 | 0.0 | 0.00 | 0.28 | 0.08 | 94 | 1020.4 |
| 20260905054018 | 14 | 340 | 0.0 | 0.0 | 0.00 | 0.28 | 0.08 | 94 | 1020.3 |
| 20260905053517 | 14 | 340 | 0.0 | 0.0 | 0.00 | 0.28 | 0.08 | 94 | 1020.3 |
| 20260905053017 | 14 | 340 | 0.0 | 0.0 | 0.00 | 0.28 | 0.08 | 94 | 1020.2 |
| 20260905052516 | 14 | 340 | 0.0 | 0.0 | 0.00 | 0.28 | 0.08 | 94 | 1019.9 |
| 20260905052016 | 14 | 340 | 0.0 | 0.0 | 0.00 | 0.28 | 0.08 | 94 | 1020.0 |
| 20260905051517 | 14 | 340 | 0.0 | 0.0 | 0.00 | 0.28 | 0.08 | 94 | 1019.7 |
| 20260905051014 | 13 | 340 | 0.0 | 0.0 | 0.00 | 0.28 | 0.08 | 94 | 1019.6 |
| 20260905050514 | 13 | 340 | 0.0 | 0.0 | 0.00 | 0.28 | 0.08 | 94 | 1019.5 |
| 20260905050014 | 13 | 340 | 0.0 | 0.0 | 0.00 | 0.28 | 0.08 | 93 | 1019.4 |
| 20260905045512 | 13 | 340 | 0.0 | 0.0 | 0.00 | 0.28 | 0.08 | 94 | 1019.3 |
| 20260905045012 | 14 | 340 | 0.0 | 0.0 | 0.00 | 0.28 | 0.08 | 94 | 1019.3 |
| 20260905044513 | 14 | 340 | 0.0 | 3.2 | 0.00 | 0.28 | 0.08 | 94 | 1019.2 |
| 20260905044009 | 14 | 340 | 0.0 | 3.2 | 0.00 | 0.28 | 0.08 | 94 | 1019.1 |
| 20260905043509 | 14 | 340 | 0.0 | 0.0 | 0.00 | 0.28 | 0.08 | 94 | 1019.0 |
| 20260905043009 | 15 | 340 | 0.0 | 0.0 | 0.00 | 0.28 | 0.08 | 94 | 1019.1 |
| 20260905042509 | 15 | 340 | 0.0 | 0.0 | 0.00 | 0.28 | 0.08 | 94 | 1019.1 |
| 20260905042011 | 15 | 340 | 0.0 | 0.0 | 0.00 | 0.28 | 0.08 | 94 | 1019.1 |
| 20260905041510 | 15 | 340 | 0.0 | 0.0 | 0.00 | 0.28 | 0.08 | 94 | 1019.1 |
| 20260905041007 | 15 | 340 | 0.0 | 0.0 | 0.00 | 0.28 | 0.08 | 94 | 1019.0 |
| 20260905040508 | 15 | 340 | 0.0 | 0.0 | 0.00 | 0.28 | 0.08 | 94 | 1019.0 |
| 20260905040009 | 15 | 340 | 0.0 | 0.0 | 0.00 | 0.28 | 0.08 | 94 | 1019.0 |
| 20260905035507 | 14 | 340 | 0.0 | 0.0 | 0.00 | 0.28 | 0.08 | 94 | 1018.9 |
| 20260905035007 | 14 | 340 | 0.0 | 0.0 | 0.00 | 0.28 | 0.08 | 93 | 1019.0 |
| 20260905034513 | 15 | 340 | 0.0 | 0.0 | 0.00 | 0.28 | 0.08 | 93 | 1018.9 |
| 20260905034006 | 15 | 340 | 0.0 | 0.0 | 0.00 | 0.28 | 0.08 | 93 | 1018.9 |
| 20260905033505 | 15 | 340 | 0.0 | 0.0 | 0.00 | 0.28 | 0.08 | 93 | 1018.9 |
| 20260905033005 | 15 | 340 | 0.0 | 0.0 | 0.00 | 0.28 | 0.08 | 93 | 1018.9 |
| 20260905032505 | 15 | 340 | 0.0 | 0.0 | 0.00 | 0.28 | 0.08 | 94 | 1018.8 |
| 20260905032003 | 15 | 340 | 0.0 | 0.0 | 0.00 | 0.28 | 0.08 | 93 | 1018.7 |
| 20260905031503 | 15 | 340 | 0.0 | 0.0 | 0.00 | 0.28 | 0.08 | 93 | 1018.6 |
| 20260905031002 | 15 | 340 | 0.0 | 0.0 | 0.00 | 0.28 | 0.08 | 93 | 1018.7 |
| 20260905030503 | 15 | 340 | 0.0 | 0.0 | 0.00 | 0.28 | 0.08 | 93 | 1018.7 |
| 20260905030005 | 15 | 340 | 0.0 | 1.6 | 0.00 | 0.28 | 0.08 | 93 | 1018.6 |
| 20260905025502 | 15 | 340 | 0.0 | 1.6 | 0.00 | 0.28 | 0.08 | 93 | 1018.6 |
| 20260905025002 | 14 | 340 | 0.0 | 0.0 | 0.00 | 0.28 | 0.08 | 93 | 1018.5 |
| 20260905024502 | 15 | 340 | 0.0 | 0.0 | 0.00 | 0.28 | 0.08 | 93 | 1018.5 |
| 20260905024001 | 15 | 340 | 0.0 | 0.0 | 0.00 | 0.28 | 0.08 | 93 | 1018.5 |
| 20260905023502 | 14 | 340 | 0.0 | 0.0 | 0.00 | 0.28 | 0.08 | 93 | 1018.5 |
| 20260905023104 | 14 | 340 | 0.0 | 0.0 | 0.00 | 0.28 | 0.08 | 93 | 1018.5 |
| 20260905022603 | 14 | 340 | 0.0 | 0.0 | 0.00 | 0.28 | 0.08 | 93 | 1018.4 |
| 20260905022101 | 15 | 340 | 0.0 | 0.0 | 0.00 | 0.28 | 0.08 | 93 | 1018.3 |
| 20260905021559 | 15 | 340 | 0.0 | 4.8 | 0.00 | 0.28 | 0.08 | 93 | 1018.4 |
| 20260905021101 | 15 | 340 | 0.0 | 4.8 | 0.00 | 0.28 | 0.08 | 93 | 1018.4 |
| 20260905020602 | 15 | 340 | 0.0 | 0.0 | 0.00 | 0.28 | 0.08 | 93 | 1018.3 |
| 20260905020110 | 15 | 340 | 0.0 | 4.8 | 0.00 | 0.28 | 0.08 | 93 | 1018.3 |
| 20260905015557 | 15 | 340 | 0.0 | 4.8 | 0.00 | 0.28 | 0.08 | 93 | 1018.3 |
| 20260905015057 | 15 | 340 | 0.0 | 4.8 | 0.00 | 0.28 | 0.08 | 93 | 1018.1 |
| 20260905014600 | 15 | 340 | 0.0 | 1.6 | 0.00 | 0.28 | 0.08 | 93 | 1018.1 |
| 20260905014055 | 15 | 340 | 0.0 | 3.2 | 0.00 | 0.28 | 0.08 | 93 | 1017.9 |
| 20260905013554 | 15 | 340 | 0.0 | 3.2 | 0.03 | 0.28 | 0.08 | 93 | 1018.1 |
| 20260905013108 | 15 | 340 | 1.6 | 4.8 | 0.05 | 0.28 | 0.08 | 93 | 1018.1 |
| 20260905012555 | 15 | 340 | 0.0 | 4.8 | 0.05 | 0.28 | 0.08 | 93 | 1018.0 |
| 20260905012055 | 15 | 340 | 1.6 | 4.8 | 0.05 | 0.28 | 0.08 | 92 | 1017.9 |
| 20260905011629 | 15 | 340 | 0.0 | 4.8 | 0.05 | 0.28 | 0.08 | 92 | 1018.0 |
| 20260905011054 | 15 | 340 | 1.6 | 4.8 | 0.05 | 0.28 | 0.08 | 93 | 1018.2 |
| 20260905010553 | 15 | 340 | 0.0 | 0.0 | 0.05 | 0.28 | 0.08 | 92 | 1018.0 |
| 20260905010053 | 15 | 341 | 0.0 | 0.0 | 0.05 | 0.28 | 0.08 | 92 | 1017.7 |
| 20260905005553 | 15 | 340 | 0.0 | 0.0 | 0.05 | 0.28 | 0.08 | 92 | 1017.7 |
| 20260905005053 | 15 | 340 | 0.0 | 0.0 | 0.05 | 0.28 | 0.08 | 92 | 1017.7 |
| 20260905004552 | 15 | 340 | 0.0 | 0.0 | 0.05 | 0.28 | 0.08 | 92 | 1017.8 |
| 20260905004051 | 15 | 340 | 0.0 | 0.0 | 0.05 | 0.28 | 0.08 | 92 | 1017.8 |
| 20260905003553 | 15 | 340 | 0.0 | 1.6 | 0.05 | 0.25 | 0.05 | 92 | 1017.8 |
| 20260905003052 | 15 | 340 | 0.0 | 1.6 | 0.03 | 0.23 | 0.05 | 92 | 1018.0 |
| 20260905002550 | 15 | 340 | 0.0 | 0.0 | 0.00 | 0.23 | 0.03 | 92 | 1018.0 |
| 20260905002050 | 15 | 340 | 0.0 | 1.6 | 0.00 | 0.23 | 0.03 | 92 | 1018.0 |
| 20260905001557 | 15 | 340 | 0.0 | 3.2 | 0.00 | 0.23 | 0.03 | 92 | 1017.8 |
| 20260905001050 | 15 | 340 | 1.6 | 4.8 | 0.00 | 0.23 | 0.03 | 92 | 1018.0 |
| 20260905000550 | 15 | 340 | 1.6 | 3.2 | 0.00 | 0.23 | 0.03 | 92 | 1018.0 |
| 20260905000049 | 15 | 340 | 0.0 | 0.0 | 0.00 | 0.23 | 0.03 | 92 | 1017.6 |
| 20260904235548 | 15 | 340 | 0.0 | 0.0 | 0.00 | 0.23 | 0.03 | 92 | 1017.5 |
| 20260904235051 | 15 | 340 | 0.0 | 1.6 | 0.00 | 0.23 | 0.03 | 92 | 1017.5 |
| 20260904234548 | 15 | 340 | 0.0 | 3.2 | 0.00 | 0.23 | 0.03 | 92 | 1017.6 |
| 20260904234047 | 15 | 340 | 0.0 | 3.2 | 0.00 | 0.23 | 0.03 | 92 | 1017.6 |
| 20260904233547 | 15 | 340 | 0.0 | 3.2 | 0.00 | 0.23 | 0.03 | 92 | 1017.5 |
| 20260904233048 | 15 | 340 | 0.0 | 3.2 | 0.00 | 0.23 | 0.03 | 92 | 1017.5 |
| 20260904232547 | 15 | 340 | 0.0 | 3.2 | 0.00 | 0.23 | 0.03 | 92 | 1017.3 |
| 20260904232047 | 15 | 340 | 0.0 | 0.0 | 0.03 | 0.23 | 0.03 | 92 | 1017.2 |
| 20260904231546 | 15 | 340 | 0.0 | 0.0 | 0.03 | 0.23 | 0.03 | 92 | 1017.2 |
| 20260904231046 | 15 | 340 | 0.0 | 0.0 | 0.03 | 0.23 | 0.03 | 92 | 1017.3 |
| 20260904230546 | 15 | 340 | 0.0 | 1.6 | 0.03 | 0.23 | 0.03 | 92 | 1017.2 |
| 20260904230046 | 15 | 340 | 0.0 | 1.6 | 0.03 | 0.23 | 0.03 | 92 | 1017.0 |
| 20260904225546 | 15 | 340 | 0.0 | 3.2 | 0.03 | 0.23 | 0.03 | 92 | 1017.4 |
| 20260904225048 | 15 | 340 | 0.0 | 3.2 | 0.03 | 0.23 | 0.03 | 92 | 1017.2 |
| 20260904224547 | 15 | 340 | 0.0 | 3.2 | 0.03 | 0.23 | 0.03 | 92 | 1017.1 |
| 20260904224045 | 15 | 340 | 0.0 | 3.2 | 0.03 | 0.23 | 0.03 | 92 | 1017.3 |
| 20260904223546 | 15 | 340 | 0.0 | 0.0 | 0.03 | 0.23 | 0.03 | 92 | 1017.5 |
| 20260904223044 | 15 | 340 | 0.0 | 0.0 | 0.03 | 0.23 | 0.03 | 92 | 1017.4 |
| 20260904222550 | 15 | 340 | 0.0 | 1.6 | 0.00 | 0.20 | 0.00 | 92 | 1017.4 |
| 20260904222047 | 15 | 340 | 0.0 | 3.2 | 0.00 | 0.20 | 0.00 | 91 | 1017.5 |
| 20260904221543 | 15 | 340 | 0.0 | 3.2 | 0.00 | 0.20 | 0.00 | 91 | 1017.5 |
| 20260904221042 | 15 | 340 | 0.0 | 3.2 | 0.00 | 0.20 | 0.00 | 91 | 1017.0 |
| 20260904220542 | 15 | 340 | 0.0 | 1.6 | 0.00 | 0.20 | 0.00 | 91 | 1017.0 |
| 20260904220042 | 15 | 340 | 0.0 | 0.0 | 0.03 | 0.20 | 0.00 | 91 | 1017.1 |
| 20260904215542 | 15 | 340 | 0.0 | 0.0 | 0.03 | 0.20 | 0.20 | 91 | 1016.8 |
| 20260904215044 | 15 | 340 | 0.0 | 0.0 | 0.05 | 0.20 | 0.20 | 91 | 1016.8 |
| 20260904214539 | 15 | 340 | 0.0 | 0.0 | 0.05 | 0.20 | 0.20 | 91 | 1016.9 |
| 20260904214039 | 15 | 340 | 0.0 | 4.8 | 0.08 | 0.20 | 0.20 | 90 | 1017.0 |
| 20260904213539 | 15 | 340 | 0.0 | 6.4 | 0.08 | 0.20 | 0.20 | 90 | 1017.1 |
| 20260904213039 | 15 | 340 | 1.6 | 6.4 | 0.08 | 0.20 | 0.20 | 90 | 1017.3 |
| 20260904212538 | 15 | 340 | 0.0 | 3.2 | 0.08 | 0.20 | 0.20 | 89 | 1017.2 |
| 20260904212038 | 16 | 340 | 0.0 | 1.6 | 0.08 | 0.20 | 0.20 | 89 | 1017.3 |
| 20260904211537 | 15 | 340 | 0.0 | 6.4 | 0.08 | 0.20 | 0.20 | 89 | 1017.0 |
| 20260904211037 | 15 | 340 | 1.6 | 9.7 | 0.08 | 0.20 | 0.20 | 89 | 1016.8 |
| 20260904210538 | 15 | 340 | 3.2 | 9.7 | 0.05 | 0.18 | 0.18 | 89 | 1016.8 |
| 20260904210037 | 16 | 339 | 3.2 | 12.9 | 0.05 | 0.18 | 0.18 | 89 | 1017.0 |
| 20260904205537 | 16 | 338 | 4.8 | 14.5 | 0.08 | 0.18 | 0.18 | 89 | 1017.2 |
| 20260904205036 | 16 | 342 | 3.2 | 14.5 | 0.08 | 0.15 | 0.15 | 88 | 1016.9 |
| 20260904204537 | 16 | 334 | 6.4 | 14.5 | 0.10 | 0.15 | 0.15 | 88 | 1016.7 |
| 20260904204036 | 16 | 339 | 4.8 | 22.5 | 0.10 | 0.13 | 0.13 | 88 | 1016.7 |
| 20260904203536 | 16 | 338 | 6.4 | 22.5 | 0.13 | 0.13 | 0.13 | 89 | 1016.6 |
| 20260904203036 | 16 | 323 | 3.2 | 19.3 | 0.13 | 0.13 | 0.13 | 89 | 1016.7 |
| 20260904202535 | 16 | 332 | 1.6 | 12.9 | 0.13 | 0.13 | 0.13 | 90 | 1016.5 |
| 20260904202037 | 16 | 337 | 1.6 | 4.8 | 0.13 | 0.13 | 0.13 | 90 | 1016.3 |
| 20260904201535 | 16 | 337 | 1.6 | 14.5 | 0.13 | 0.13 | 0.13 | 89 | 1016.0 |
| 20260904201035 | 15 | 337 | 3.2 | 20.9 | 0.13 | 0.13 | 0.13 | 89 | 1016.2 |
| 20260904200534 | 16 | 339 | 6.4 | 20.9 | 0.13 | 0.13 | 0.13 | 88 | 1016.2 |
| 20260904200033 | 16 | 347 | 4.8 | 24.1 | 0.13 | 0.13 | 0.13 | 88 | 1016.1 |
| 20260904195534 | 17 | 350 | 9.7 | 24.1 | 0.10 | 0.10 | 0.10 | 87 | 1016.4 |
| 20260904195031 | 18 | 346 | 4.8 | 20.9 | 0.05 | 0.05 | 0.05 | 88 | 1016.3 |
| 20260904194532 | 18 | 317 | 6.4 | 24.1 | 0.05 | 0.05 | 0.05 | 86 | 1015.8 |
| 20260904194030 | 18 | 312 | 4.8 | 30.6 | 0.03 | 0.03 | 0.03 | 83 | 1015.5 |
| 20260904193530 | 20 | 340 | 12.9 | 33.8 | 0.00 | 0.00 | 0.00 | 79 | 1015.4 |
| 20260904193030 | 20 | 331 | 12.9 | 33.8 | 0.00 | 0.00 | 0.00 | 76 | 1015.1 |
| 20260904192529 | 20 | 287 | 11.3 | 27.4 | 0.00 | 0.00 | 0.00 | 75 | 1015.0 |
| 20260904192029 | 21 | 277 | 8.0 | 27.4 | 0.00 | 0.00 | 0.00 | 74 | 1014.7 |
| 20260904191529 | 21 | 337 | 6.4 | 24.1 | 0.00 | 0.00 | 0.00 | 74 | 1014.5 |
| 20260904191029 | 21 | 333 | 8.0 | 30.6 | 0.00 | 0.00 | 0.00 | 73 | 1014.4 |
| 20260904190529 | 22 | 332 | 12.9 | 30.6 | 0.00 | 0.00 | 0.00 | 72 | 1014.0 |
| 20260904190028 | 22 | 227 | 12.9 | 29.0 | 0.00 | 0.00 | 0.00 | 70 | 1013.6 |
| 20260904185529 | 24 | 342 | 12.9 | 29.0 | 0.00 | 0.00 | 0.00 | 64 | 1013.5 |
| 20260904185028 | 25 | 265 | 4.8 | 12.9 | 0.00 | 0.00 | 0.00 | 56 | 1012.9 |
| 20260904184533 | 25 | 265 | 4.8 | 16.1 | 0.00 | 0.00 | 0.00 | 57 | 1012.7 |
| 20260904184028 | 25 | 259 | 3.2 | 17.7 | 0.00 | 0.00 | 0.00 | 57 | 1012.5 |
| 20260904183528 | 25 | 260 | 4.8 | 17.7 | 0.00 | 0.00 | 0.00 | 57 | 1012.6 |
| 20260904183027 | 25 | 259 | 6.4 | 16.1 | 0.00 | 0.00 | 0.00 | 57 | 1012.5 |